Regional Weather Roundup
Issued by NWS

Home | Current Version | Previous Version | Graphics & Text | Print | Product List | Glossary On
Versions: 1 2 3 4 5 6 7 8 9 10 11 12 13 14 15 16 17 18 19 20 21 22 23 24 25 26 27 28 29 30 31 32 33 34 35 36 37 38 39 40 41 42 43 44 45 46 47 48 49 50
000
ASUS45 KSLC 222010
RWRUT

UTAH REGIONAL WEATHER ROUNDUP
NATIONAL WEATHER SERVICE SALT LAKE CITY UT
200 PM MDT FRI AUG 22 2014

UTZ001>011-023>025-222100-

NORTHERN UTAH

CITY           SKY/WX    TMP DP  RH WIND       PRES   REMARKS
HILL AFB       CLOUDY    73  50  43 NW12      30.00F
LOGAN          PTSUNNY   67  53  61 N17       30.05S
OGDEN          CLOUDY    75  53  46 N15       29.97F
PROVO AIRPORT  MOSUNNY   81  45  28 CALM      29.97F
SALT LAKE CITY CLOUDY    81  44  27 VRB6      29.93F
VERNAL         MOSUNNY   78  47  33 W8        30.05F
WENDOVER       CLOUDY    68  52  56 NE12      29.98F
HEBER CITY     MOSUNNY   79  43  27 SW15G21   30.01F
WEST JORDAN    MOSUNNY   81  54  39 SE8       29.95F

$$

UTZ012>022-026-027-222100-

SOUTHERN UTAH

CITY           SKY/WX    TMP DP  RH WIND       PRES   REMARKS
BRYCE CANYON   MOSUNNY   64  48  56 SE8       30.22F
CEDAR CITY     SUNNY     77  45  32 W16G23    30.09F
MILFORD        SUNNY     81  46  29 S16G26    30.04F
MOAB/CYNLANDS  SUNNY     77  48  35 VRB5      30.01F
PRICE          MOSUNNY   76  43  30 NE6       30.09F
ST GEORGE      PTCLDY    84  52  32 S5        29.99F
KANAB            N/A     75  52  43 S6G16     30.13F

$$

REGIONAL REPORTS     COLORADO/ARIZONA

CITY           SKY/WX    TMP DP  RH WIND       PRES   REMARKS
CRAIG, CO      CLOUDY    73  46  38 CALM      30.10F
GRAND JUNCTION PTSUNNY   78  48  34 W14       30.04F
RIFLE          CLOUDY    72  47  40 CALM      30.10F
MONTROSE       CLOUDY    73  51  46 CALM      30.14F
CORTEZ         PTSUNNY   72  51  47 SE13      30.15F
PAGE, AZ       MOSUNNY   81  52  36 VRB5      30.05F
GRAND CANYON   MOSUNNY   68  48  48 SW13G18   30.24F
KINGMAN        SUNNY     80  53  39 S9        30.06F
FLAGSTAFF      CLOUDY    64  47  53 SW9       30.26F

$$

REGIONAL REPORTS    NEVADA/IDAHO/WYOMING

CITY           SKY/WX    TMP DP  RH WIND       PRES   REMARKS
LAS VEGAS, NV  MOSUNNY   89  50  26 VRB7G17   29.89F
ELY            PTSUNNY   76  42  29 S16G23    30.05F
ELKO           PTSUNNY   76  28  17 W23G31    29.97F
POCATELLO, ID  LGT RAIN  61  55  81 CALM      30.03F
BURLEY         CLOUDY    71  56  58 CALM      29.92F
EVANSTON, WY   CLOUDY    70  44  39 W10       30.12F
ROCK SPRINGS   MOSUNNY   74  38  27 W9G20     30.08F

$$


USA.gov is the U.S. government's official web portal to all federal, state and local government web resources and services.